• In Österreich
  • Länderverzeichnis
  • Für 7 Tage
  • Wassertemperatur
  • Satellitenkarten
  • Wetterkarte
  • News
  • Widgets
  • user-avatar
    Anmelden

    Stündliche Wetter Ordino

    Heute, 22 Oktober, Sonntag

    Zeit Temperatur Niederschläge Wind Luftdruck Luftfeuchtigkeit
    00:00 +5°C° 0 mm 2 m/S 638 mmHg 92%
    01:00 +5°C° 0 mm 2 m/S 638 mmHg 91%
    02:00 +4°C° 0 mm 2 m/S 638 mmHg 90%
    03:00 +4°C° 0 mm 2 m/S 637 mmHg 89%
    04:00 +3°C° 0 mm 2 m/S 637 mmHg 88%
    05:00 +3°C° 0 mm 2 m/S 637 mmHg 87%
    06:00 +2°C° 0 mm 2 m/S 637 mmHg 85%
    07:00 +4°C° 0 mm 2 m/S 637 mmHg 78%
    08:00 +4°C° 0 mm 3 m/S 638 mmHg 70%
    09:00 +7°C° 0 mm 3 m/S 639 mmHg 63%
    10:00 +8°C° 0 mm 3 m/S 639 mmHg 59%
    11:00 +9°C° 0 mm 3 m/S 639 mmHg 54%
    12:00 +10°C° 0 mm 3 m/S 640 mmHg 49%
    13:00 +10°C° 0 mm 3 m/S 639 mmHg 50%
    14:00 +9°C° 0 mm 3 m/S 639 mmHg 51%
    15:00 +9°C° 0 mm 3 m/S 639 mmHg 52%
    16:00 +7°C° 0 mm 3 m/S 638 mmHg 60%
    17:00 +5°C° 0 mm 3 m/S 638 mmHg 68%
    18:00 +4°C° 0 mm 2 m/S 637 mmHg 76%
    19:00 +3°C° 0 mm 2 m/S 637 mmHg 74%
    20:00 +2°C° 0 mm 3 m/S 637 mmHg 72%
    21:00 +2°C° 0 mm 3 m/S 638 mmHg 70%
    22:00 +1°C° 0 mm 3 m/S 638 mmHg 71%
    23:00 +2°C° 0 mm 2 m/S 638 mmHg 71%

    Morgen, 23 Oktober, Montag

    Zeit Temperatur Niederschläge Wind Luftdruck Luftfeuchtigkeit
    00:00 +2°C° 0 mm 2 m/S 638 mmHg 71%
    01:00 +2°C° 0 mm 2 m/S 637 mmHg 72%
    02:00 +2°C° 0 mm 2 m/S 637 mmHg 73%
    03:00 +2°C° 0 mm 2 m/S 637 mmHg 74%
    04:00 +2°C° 0 mm 2 m/S 637 mmHg 73%
    05:00 +2°C° 0 mm 2 m/S 637 mmHg 72%
    06:00 +2°C° 0 mm 2 m/S 637 mmHg 72%
    07:00 +4°C° 0 mm 2 m/S 638 mmHg 64%
    08:00 +6°C° 0 mm 2 m/S 639 mmHg 56%
    09:00 +8°C° 0 mm 2 m/S 640 mmHg 49%
    10:00 +10°C° 0 mm 2 m/S 640 mmHg 46%
    11:00 +12°C° 0 mm 2 m/S 640 mmHg 43%
    12:00 +13°C° 0 mm 2 m/S 641 mmHg 40%
    13:00 +13°C° 0 mm 2 m/S 640 mmHg 42%
    14:00 +13°C° 0 mm 2 m/S 640 mmHg 45%
    15:00 +12°C° 0 mm 2 m/S 640 mmHg 47%
    16:00 +9°C° 0 mm 2 m/S 639 mmHg 56%
    17:00 +7°C° 0 mm 2 m/S 638 mmHg 64%
    18:00 +5°C° 0 mm 2 m/S 638 mmHg 73%
    19:00 +5°C° 0 mm 2 m/S 638 mmHg 69%
    20:00 +5°C° 0 mm 2 m/S 638 mmHg 66%
    21:00 +5°C° 0 mm 2 m/S 638 mmHg 62%
    22:00 +5°C° 0 mm 2 m/S 638 mmHg 62%
    23:00 +5°C° 0 mm 2 m/S 638 mmHg 62%

    übermorgen, 24 Oktober, Dienstag

    Zeit Temperatur Niederschläge Wind Luftdruck Luftfeuchtigkeit
    00:00 +5°C° 0 mm 2 m/S 638 mmHg 62%
    01:00 +5°C° 0 mm 2 m/S 638 mmHg 62%
    02:00 +5°C° 0 mm 2 m/S 638 mmHg 61%
    03:00 +5°C° 0 mm 2 m/S 638 mmHg 61%
    04:00 +5°C° 0 mm 2 m/S 638 mmHg 61%
    05:00 +5°C° 0 mm 2 m/S 638 mmHg 60%
    06:00 +5°C° 0 mm 2 m/S 638 mmHg 60%
    07:00 +9°C° 0 mm 1 m/S 639 mmHg 55%
    08:00 +11°C° 0 mm 1 m/S 640 mmHg 50%
    09:00 +14°C° 0 mm 1 m/S 641 mmHg 46%
    10:00 +15°C° 0 mm 1 m/S 641 mmHg 43%
    11:00 +18°C° 0 mm 1 m/S 641 mmHg 41%
    12:00 +19°C° 0 mm 1 m/S 641 mmHg 38%
    13:00 +18°C° 0 mm 1 m/S 641 mmHg 40%
    14:00 +18°C° 0 mm 1 m/S 641 mmHg 42%
    15:00 +18°C° 0 mm 1 m/S 640 mmHg 44%
    16:00 +15°C° 0 mm 1 m/S 639 mmHg 51%
    17:00 +12°C° 0 mm 1 m/S 639 mmHg 59%
    18:00 +10°C° 0 mm 1 m/S 638 mmHg 67%
    19:00 +10°C° 0 mm 1 m/S 638 mmHg 67%
    20:00 +10°C° 0 mm 1 m/S 638 mmHg 66%
    21:00 +9°C° 0 mm 1 m/S 638 mmHg 66%
    22:00 +9°C° 0 mm 1 m/S 638 mmHg 64%
    23:00 +9°C° 0 mm 1 m/S 638 mmHg 63%

    25 Oktober, Mittwoch

    Zeit Temperatur Niederschläge Wind Luftdruck Luftfeuchtigkeit
    00:00 +9°C° 0 mm 1 m/S 638 mmHg 61%
    01:00 +9°C° 0 mm 1 m/S 638 mmHg 60%
    02:00 +9°C° 0 mm 1 m/S 638 mmHg 59%
    03:00 +9°C° 0 mm 1 m/S 638 mmHg 58%
    04:00 +9°C° 0 mm 1 m/S 638 mmHg 58%
    05:00 +9°C° 0 mm 1 m/S 638 mmHg 57%
    06:00 +9°C° 0 mm 1 m/S 638 mmHg 57%
    07:00 +11°C° 0 mm 1 m/S 639 mmHg 52%
    08:00 +14°C° 0 mm 1 m/S 640 mmHg 48%
    09:00 +16°C° 0 mm 1 m/S 641 mmHg 43%
    10:00 +18°C° 0 mm 1 m/S 642 mmHg 40%
    11:00 +19°C° 0 mm 1 m/S 642 mmHg 38%
    12:00 +19°C° 0 mm 2 m/S 642 mmHg 35%
    13:00 +19°C° 0 mm 2 m/S 642 mmHg 38%
    14:00 +19°C° 0 mm 2 m/S 642 mmHg 40%
    15:00 +19°C° 0 mm 1 m/S 641 mmHg 42%
    16:00 +16°C° 0 mm 1 m/S 641 mmHg 50%
    17:00 +13°C° 0 mm 1 m/S 640 mmHg 58%
    18:00 +11°C° 0 mm 1 m/S 639 mmHg 66%
    19:00 +11°C° 0 mm 1 m/S 639 mmHg 66%
    20:00 +10°C° 0 mm 1 m/S 640 mmHg 65%
    21:00 +10°C° 0 mm 1 m/S 640 mmHg 65%
    22:00 +10°C° 0 mm 1 m/S 640 mmHg 64%
    23:00 +10°C° 0 mm 1 m/S 640 mmHg 63%

    26 Oktober, Donnerstag

    Zeit Temperatur Niederschläge Wind Luftdruck Luftfeuchtigkeit
    00:00 +10°C° 0 mm 1 m/S 640 mmHg 62%
    01:00 +10°C° 0 mm 1 m/S 640 mmHg 60%
    02:00 +10°C° 0 mm 1 m/S 640 mmHg 59%
    03:00 +10°C° 0 mm 1 m/S 639 mmHg 57%
    04:00 +10°C° 0 mm 1 m/S 640 mmHg 56%
    05:00 +10°C° 0 mm 1 m/S 640 mmHg 55%
    06:00 +10°C° 0 mm 1 m/S 640 mmHg 54%
    07:00 +12°C° 0 mm 1 m/S 641 mmHg 49%
    08:00 +15°C° 0 mm 1 m/S 642 mmHg 44%
    09:00 +16°C° 0 mm 0 m/S 643 mmHg 39%
    10:00 +19°C° 0 mm 1 m/S 643 mmHg 37%
    11:00 +21°C° 0 mm 1 m/S 644 mmHg 34%
    12:00 +22°C° 0 mm 1 m/S 644 mmHg 31%
    13:00 +21°C° 0 mm 1 m/S 644 mmHg 33%
    14:00 +21°C° 0 mm 1 m/S 643 mmHg 36%
    15:00 +20°C° 0 mm 1 m/S 643 mmHg 38%
    16:00 +18°C° 0 mm 1 m/S 642 mmHg 45%
    17:00 +15°C° 0 mm 1 m/S 641 mmHg 53%
    18:00 +12°C° 0 mm 1 m/S 641 mmHg 60%
    19:00 +12°C° 0 mm 1 m/S 641 mmHg 59%
    20:00 +12°C° 0 mm 1 m/S 641 mmHg 58%
    21:00 +11°C° 0 mm 1 m/S 641 mmHg 56%
    22:00 +11°C° 0 mm 1 m/S 641 mmHg 54%
    23:00 +11°C° 0 mm 1 m/S 641 mmHg 51%

    27 Oktober, Freitag

    Zeit Temperatur Niederschläge Wind Luftdruck Luftfeuchtigkeit
    00:00 +11°C° 0 mm 1 m/S 641 mmHg 49%
    01:00 +10°C° 0 mm 2 m/S 641 mmHg 47%
    02:00 +10°C° 0 mm 2 m/S 641 mmHg 46%
    03:00 +10°C° 0 mm 2 m/S 640 mmHg 45%
    04:00 +9°C° 0 mm 2 m/S 640 mmHg 45%
    05:00 +9°C° 0 mm 2 m/S 640 mmHg 45%
    06:00 +9°C° 0 mm 2 m/S 640 mmHg 45%
    07:00 +12°C° 0 mm 2 m/S 641 mmHg 42%
    08:00 +14°C° 0 mm 2 m/S 642 mmHg 40%
    09:00 +17°C° 0 mm 2 m/S 643 mmHg 37%
    10:00 +18°C° 0 mm 2 m/S 644 mmHg 34%
    11:00 +19°C° 0 mm 2 m/S 644 mmHg 31%
    12:00 +20°C° 0 mm 3 m/S 644 mmHg 28%
    13:00 +20°C° 0 mm 3 m/S 643 mmHg 30%
    14:00 +19°C° 0 mm 3 m/S 643 mmHg 33%
    15:00 +19°C° 0 mm 3 m/S 643 mmHg 35%
    16:00 +16°C° 0 mm 3 m/S 642 mmHg 41%
    17:00 +13°C° 0 mm 3 m/S 641 mmHg 48%
    18:00 +10°C° 0 mm 3 m/S 640 mmHg 54%
    19:00 +10°C° 0 mm 3 m/S 640 mmHg 54%
    20:00 +10°C° 0 mm 3 m/S 640 mmHg 54%
    21:00 +9°C° 0 mm 3 m/S 640 mmHg 54%
    22:00 +9°C° 0 mm 3 m/S 640 mmHg 54%
    23:00 +9°C° 0 mm 3 m/S 639 mmHg 54%
    Mehr zeigen